Washington State Current Weather Observations

 
 ASUS46 KSEW 021520
 RWRWA 
 
 WASHINGTON REGIONAL WEATHER ROUNDUP
 NATIONAL WEATHER SERVICE SEATTLE WA
 700 AM PST WED DEC 02 2020
 
 NOTE:"FAIR" INDICATES FEW OR NO CLOUDS BELOW 12,000 FEET WITH NO 
 SIGNIFICANT WEATHER AND/OR OBSTRUCTIONS TO VISIBILITY.
 
 WAZ507-509-555>559-021600-
 SEATTLE, TACOMA, EVERETT, AND VICINITY
   
 CITY           SKY/WX    TMP DP  RH WIND       PRES   REMARKS
 EVERETT        CLEAR     36  31  82 CALM      30.26F                  
 BOEING FIELD   CLEAR     33  31  92 CALM      30.26F                  
 RENTON         CLEAR     36  32  85 CALM      30.26F                  
 SEATAC AIRPORT CLEAR     39  32  76 NE10      30.24F                  
 JBLM-MCCHORD   CLEAR     25  23  92 CALM      30.24F                  
 PUYALLUP       FAIR      27  27 100 CALM      30.23F                  
 BREMERTON      CLEAR     36  30  79 CALM      30.26S                  
 JBLM-FT LEWIS  CLEAR     26  26 100 SE5       30.24S                  
 TACOMA NARROWS CLEAR     41  33  73 N9        30.24F                  
 
WAZ001-503-506-510-514-515-021600- NORTH INTERIOR CITY SKY/WX TMP DP RH WIND PRES REMARKS BELLINGHAM CLEAR 30 28 92 CALM 30.28F FRIDAY HARBOR CLEAR 40 36 86 N5 30.28F EASTSOUND CLEAR 43 34 70 CALM 30.28S PORT ANGELES CLEAR 38 34 85 SE6 30.26F EDIZ HOOK FAIR 39 37 91 SE5 30.27F PORT TOWNSEND FAIR 25 25 100 CALM 30.26F NAS WHIDBEY PTCLDY 40 33 76 E8 30.31F ARLINGTON CLEAR 25 25 100 NW3 30.27F FOG BURLINGTON CLEAR 34 32 93 CALM 30.28F
WAZ020-022-039-040-504-511-512-021600- SOUTHWEST INTERIOR CITY SKY/WX TMP DP RH WIND PRES REMARKS SHELTON CLEAR 27 26 96 CALM 30.22F OLYMPIA PTCLDY 27 25 92 CALM 30.25F FOG CHEHALIS FOG 30 30 100 CALM 30.26S VSB<1/4 KELSO CLOUDY 28 27 96 CALM 30.27S VANCOUVER CLEAR 49 21 33 E20G30 30.25S SCAPPOOSE, OR CLEAR 31 28 89 W6 30.26S PORTLAND, OR CLEAR 46 26 45 E17G26 30.25R
WAZ021-516-517-021600- WASHINGTON COAST CITY SKY/WX TMP DP RH WIND PRES REMARKS FORKS CLEAR 38 32 79 E5 30.17F HOQUIAM CLEAR 42 32 67 E17 30.19S ASTORIA, OR CLEAR 47 25 42 E7G21 30.15F
WAZ019-023-024-040-567>569-021600- CASCADE MOUNTAINS AND COLUMBIA GORGE CITY SKY/WX TMP DP RH WIND PRES REMARKS STAMPEDE PASS CLEAR 25 21 85 VRB7 30.35F TROUTDALE, OR CLEAR 45 29 53 E28G43 30.26F HOOD RIVER, OR SUNNY 34 28 80 E5 30.54S THE DALLES, OR CLEAR 27 25 92 CALM 30.57S FOG
WAZ026-027-041>044-520-521-021600- EAST SLOPES CITY SKY/WX TMP DP RH WIND PRES REMARKS OMAK CLEAR 22 18 85 CALM 30.60F WENATCHEE CLEAR 25 23 92 CALM 30.58F ELLENSBURG N/A 23 17 78 NE6 30.54S YAKIMA CLEAR 30 21 69 W10 30.56F WCI 21 SUNNYSIDE ARPT SUNNY 22 20 93 N3 30.56 YAKIMA TC FAIR 29 23 76 NE6 30.53F
WAZ028-034-035-021600- COLUMBIA BASIN CITY SKY/WX TMP DP RH WIND PRES REMARKS EPHRATA CLEAR 26 22 84 N7 30.55F MOSES LAKE CLEAR 27 22 81 N9 30.56F PASCO CLEAR 24 22 91 N7 30.58S RICHLAND ARPT SUNNY 28 27 93 N3 30.59 HERMISTON, OR CLEAR 24 20 84 SE5 30.55S
WAZ036>038-021600- NORTHEAST WASHINGTON CITY SKY/WX TMP DP RH WIND PRES REMARKS SPOKANE GEIGER FOG 24 22 91 NE8 30.52F VSB 1/4 SPOKANE FELTS PTCLDY 24 21 88 CALM 30.56S FAIRCHILD AFB FOG 23 23 100 NE7 30.50F VSB 1 COEURDALENE,ID PTCLDY 25 23 93 NE7 30.54S DEER PARK CLEAR 24 21 88 N7 30.54F
WAZ029>033-021600- SOUTHEAST WASHINGTON CITY SKY/WX TMP DP RH WIND PRES REMARKS PULLMAN CLEAR 28 22 78 E13 30.49F WCI 17 LEWISTON, ID CLEAR 28 23 81 SE6 30.54S WALLA WALLA FOG 27 26 96 S9 30.52S VSB 1/4 PENDLETON, OR PTCLDY 24 23 96 CALM 30.51S

Data from: http://www.wrh.noaa.gov/sew/get.php?pil=RWR&sid=WA&version=0&format=printer

Current Observations

Current Weather Conditions by Major Highway
Washington State Current Weather Observations   …  Oregon State Current Weather Observation



48 Hour Forecast


Seattle  …  Vancouver  …  Portland
————————————————————————————————————————
Bend  …  Spokane  …  Richland  …  Pendleton  …  Blue Mountains I-84  …  Yakima
————————————————————————————————————————
Goldendale, Washington Higher Elevations  …  Dallesport Airport - Goldendale  …  Bingen - White Salmon - Hood River  …  Index





Top of Page